[[{"header":{"parameterUnit":"m.s-1","parameterCategory":1,"la1":30.2991,"la2":30.254,"lo1":-89.0895,"lo2":-89.0444,"dy":0.0017,"dx":0.0017,"nx":28,"ny":28,"refTime":"2024-06-14T21:00:00:Z","depth":0,"parameterNumber":2,"parameterNumberName":"U-component_of_WINDS"},"data":[0,0,0,0,0,0,0,0,0,0,0,0,0,0,0,0,0,0,0,0,0,0,0,0,0,0,0,0,0,0,0,0,0,0,0,0,0,0,0,0,0,0,0,0,0,0,0,0,0,0,0,0,0,0,0,0,0,0,-1.299,-1.2989,0,-1.2941,-1.294,-1.2939,-1.2925,-1.2925,-1.2925,-1.2925,-1.2873,-1.2871,-1.2869,0,0,0,0,0,0,0,0,0,0,0,0,0,-1.3068,-1.3066,-1.299,-1.2989,-1.2988,-1.2941,-1.294,-1.2939,-1.2925,-1.2925,-1.2925,-1.2926,-1.2873,-1.2871,-1.2869,0,0,0,0,0,0,0,0,0,0,0,0,0,-1.3028,-1.3066,-1.299,-1.2975,-1.2974,-1.2941,-1.294,-1.2939,-1.2925,-1.2925,-1.2925,-1.2926,-1.2874,-1.2871,-1.2869,-1.2846,0,0,-1.2862,-1.286,0,0,0,0,0,0,0,0,-1.303,-1.3025,-1.2978,-1.2976,-1.2974,-1.2939,-1.2948,-1.2908,-1.2924,-1.2943,-1.2925,-1.2926,-1.2894,-1.289,-1.288,-1.2844,-1.2842,-1.2861,-1.286,-1.2859,-1.2858,0,0,0,0,0,0,0,-1.3033,-1.3027,-1.297,-1.2977,-1.2975,-1.297,-1.2965,-1.294,-1.2917,-1.2941,-1.294,-1.2935,-1.2893,-1.2883,-1.2879,-1.2841,-1.2861,-1.2859,-1.2858,-1.2857,-1.2783,-1.2782,0,0,0,0,0,0,-1.3038,-1.3029,-1.2972,-1.2969,-1.3004,-1.2969,-1.2963,-1.295,-1.2917,-1.2913,-1.2935,-1.2934,-1.2887,-1.2882,-1.2877,-1.2848,-1.2859,-1.2856,-1.2855,-1.2783,-1.2782,-1.2782,0,0,0,0,0,0,-1.304,-1.3033,-1.2974,-1.2999,-1.2991,-1.2967,-1.2953,-1.2949,-1.2938,-1.2912,-1.2908,-1.2928,-1.2887,-1.288,-1.2854,-1.2846,-1.2855,-1.2853,-1.2784,-1.2783,-1.2782,-1.279,0,0,0,0,0,0,-1.3042,-1.3034,-1.3026,-1.2999,-1.2989,-1.2953,-1.2952,-1.2948,-1.2934,-1.2933,-1.2905,-1.29,-1.2886,-1.2858,-1.2852,-1.2842,-1.2851,-1.2784,-1.2783,-1.2782,-1.279,-1.2789,-1.2788,0,0,0,0,0,-1.3045,-1.3029,-1.3026,-1.3019,-1.2979,-1.2952,-1.2947,-1.2932,-1.2934,-1.2925,-1.2908,-1.2901,-1.2848,-1.2855,-1.2848,-1.2838,-1.2785,-1.2784,-1.2782,-1.279,-1.2789,-1.2789,0,0,0,0,0,0,-1.3056,-1.3026,-1.3021,-1.2996,-1.2977,-1.295,-1.2938,-1.2931,-1.2911,-1.2911,-1.2892,-1.2886,-1.2861,-1.2847,-1.2856,-1.2814,-1.2816,-1.2813,-1.2824,-1.2823,-1.2822,-1.2826,-1.2849,0,0,0,0,0,-1.3055,-1.3037,-1.3011,-1.2992,-1.2982,-1.2962,-1.295,-1.294,-1.2919,-1.291,-1.2892,-1.2871,-1.2849,-1.2835,-1.2814,-1.2788,-1.2781,-1.2777,-1.2777,-1.2776,-1.2774,-1.2759,-1.2757,-1.2778,-1.2778,-1.2778,0,0,-1.3054,-1.3035,-1.3025,-1.2993,-1.2977,-1.2958,-1.2955,-1.2935,-1.292,-1.2907,-1.2881,-1.2867,-1.2842,-1.2816,-1.2803,-1.2803,-1.2767,-1.2775,-1.2775,-1.2773,-1.2757,-1.2755,-1.2753,-1.2777,-1.2778,-1.2778,0,0,-1.3041,-1.3026,-1.3008,-1.2992,-1.2968,-1.2954,-1.295,-1.2923,-1.2914,-1.2888,-1.2877,-1.2859,-1.2822,-1.2805,-1.2791,-1.2772,-1.2765,-1.2765,-1.2762,-1.2747,-1.2745,-1.2743,-1.2736,-1.2734,-1.2763,-1.2763,-1.2763,0,-1.3042,-1.3014,-1.2999,-1.2979,-1.2965,-1.2953,-1.2934,-1.2919,-1.2889,-1.288,-1.288,-1.2834,-1.2816,-1.2786,-1.2781,-1.277,-1.2764,-1.2769,-1.2747,-1.2745,-1.2743,-1.2736,-1.2733,-1.2764,-1.2764,-1.2764,-1.2764,0,-1.3016,-1.2996,-1.2984,-1.2957,-1.2941,-1.2922,-1.2903,-1.289,-1.2881,-1.2867,-1.284,-1.2819,-1.2793,-1.2785,-1.2776,-1.2752,-1.2753,-1.275,-1.2752,-1.2742,-1.2735,-1.2732,-1.2764,-1.2764,-1.2764,-1.2764,0,0,-1.3009,-1.2973,-1.2969,-1.2956,-1.2929,-1.2912,-1.2892,-1.2867,-1.2856,-1.2835,-1.2817,-1.2786,-1.2784,-1.2768,-1.2757,-1.2744,-1.273,-1.2743,-1.2742,-1.2741,-1.2702,-1.2704,-1.2702,-1.2725,-1.2724,-1.2724,-1.2704,0,-1.2993,-1.2958,-1.2943,-1.2914,-1.2895,-1.2883,-1.2865,-1.2846,-1.2832,-1.2813,-1.2798,-1.2776,-1.2774,-1.2765,-1.2752,-1.2734,-1.2722,-1.2736,-1.2707,-1.2706,-1.2714,-1.2698,-1.27,-1.2683,-1.2701,-1.2701,-1.2701,0,-1.297,-1.295,-1.2919,-1.2894,-1.2885,-1.287,-1.2846,-1.2828,-1.2805,-1.2796,-1.2779,-1.2768,-1.2746,-1.2749,-1.2717,-1.2726,-1.2714,-1.2703,-1.2702,-1.2699,-1.2703,-1.2694,-1.2677,-1.2674,-1.2696,-1.2696,-1.2697,0,-1.2968,-1.2933,-1.291,-1.2899,-1.2869,-1.2858,-1.2845,-1.2823,-1.2809,-1.2787,-1.2778,-1.2754,-1.2741,-1.2722,-1.2705,-1.2708,-1.2674,-1.2676,-1.2665,-1.2666,-1.2659,-1.2659,-1.2639,-1.2651,-1.2651,-1.2651,-1.2651,0,-1.2952,-1.2933,-1.2909,-1.2895,-1.2873,-1.2857,-1.2835,-1.2821,-1.2801,-1.2783,-1.2771,-1.2754,-1.2733,-1.2713,-1.27,-1.2675,-1.2669,-1.266,-1.2657,-1.2662,-1.2663,-1.2653,-1.2654,-1.265,-1.265,-1.265,-1.265,0,-1.2946,-1.2929,-1.2903,-1.2876,-1.2869,-1.2855,-1.2831,-1.2817,-1.2802,-1.278,-1.2773,-1.275,-1.2726,-1.2708,-1.2676,-1.2667,-1.2641,-1.2637,-1.2649,-1.2647,-1.2638,-1.2639,-1.2611,-1.2606,-1.2621,-1.2621,-1.2621,0,-1.2937,-1.2922,-1.2894,-1.2882,-1.2869,-1.2849,-1.2835,-1.2817,-1.2803,-1.2776,-1.2764,-1.2739,-1.2719,-1.2681,-1.2661,-1.2636,-1.2632,-1.2624,-1.2628,-1.2633,-1.2632,-1.2633,-1.2631,-1.2623,-1.2623,-1.2623,-1.2623,0,-1.2922,-1.2914,-1.2895,-1.2872,-1.2856,-1.2837,-1.2817,-1.2808,-1.2786,-1.277,-1.2746,-1.273,-1.2699,-1.2674,-1.2648,-1.2633,-1.2624,-1.2622,-1.2618,-1.2623,-1.263,-1.2626,-1.2647,-1.2623,-1.2623,-1.2623,-1.2623,-1.2623,-1.2914,-1.2901,-1.2879,-1.2857,-1.2841,-1.2823,-1.2808,-1.2792,-1.2772,-1.2745,-1.2736,-1.2711,-1.2687,-1.2651,-1.2636,-1.2616,-1.2615,-1.261,-1.2608,-1.2607,-1.2608,-1.2633,-1.2611,-1.2611,-1.2611,-1.2611,-1.2611,0,-1.2899,-1.2884,-1.2865,-1.2838,-1.2821,-1.2815,-1.2793,-1.2779,-1.2758,-1.2737,-1.2717,-1.2689,-1.2665,-1.2643,-1.2618,-1.2606,-1.2601,-1.26,-1.26,-1.2597,-1.261,-1.2616,-1.2604,-1.2604,-1.2604,-1.2604,-1.2604,-1.2604,-1.2889,-1.2866,-1.2855,-1.2824,-1.2809,-1.2785,-1.2773,-1.2756,-1.274,-1.2709,-1.2689,-1.2676,-1.2654,-1.2627,-1.2605,-1.2599,-1.259,-1.259,-1.2583,-1.2595,-1.2596,-1.2597,-1.2602,-1.2588,-1.2588,-1.2571,-1.2571,-1.2571]},{"header":{"parameterUnit":"m.s-1","parameterCategory":1,"la1":30.2991,"la2":30.254,"lo1":-89.0895,"lo2":-89.0444,"dy":0.0017,"dx":0.0017,"nx":28,"ny":28,"refTime":"2024-06-14T21:00:00:Z","depth":0,"parameterNumber":3,"parameterNumberName":"V-component_of_WINDS"},"data":[0,0,0,0,0,0,0,0,0,0,0,0,0,0,0,0,0,0,0,0,0,0,0,0,0,0,0,0,0,0,0,0,0,0,0,0,0,0,0,0,0,0,0,0,0,0,0,0,0,0,0,0,0,0,0,0,0,0,-3.1618,-3.1619,0,-3.1667,-3.1667,-3.1668,-3.1671,-3.167,-3.167,-3.1669,-3.1716,-3.1718,-3.172,0,0,0,0,0,0,0,0,0,0,0,0,0,-3.1527,-3.1528,-3.1618,-3.1619,-3.1619,-3.1667,-3.1667,-3.1668,-3.1671,-3.167,-3.1669,-3.1669,-3.1716,-3.1718,-3.172,0,0,0,0,0,0,0,0,0,0,0,0,0,-3.157,-3.1529,-3.1618,-3.1627,-3.1628,-3.1667,-3.1667,-3.1668,-3.1671,-3.167,-3.1669,-3.1668,-3.1715,-3.1718,-3.172,-3.1753,0,0,-3.1728,-3.173,0,0,0,0,0,0,0,0,-3.1567,-3.1573,-3.1625,-3.1626,-3.1627,-3.1662,-3.1653,-3.1697,-3.1671,-3.1654,-3.1669,-3.1668,-3.1699,-3.1703,-3.1714,-3.1755,-3.1758,-3.1729,-3.173,-3.1731,-3.1732,0,0,0,0,0,0,0,-3.1565,-3.1571,-3.1637,-3.1625,-3.1627,-3.1628,-3.1633,-3.1661,-3.1681,-3.1656,-3.1656,-3.1662,-3.1699,-3.1711,-3.1715,-3.1758,-3.1729,-3.1731,-3.1733,-3.1734,-3.1832,-3.1833,0,0,0,0,0,0,-3.156,-3.1569,-3.1636,-3.1639,-3.1595,-3.163,-3.1636,-3.1652,-3.168,-3.1684,-3.1663,-3.1662,-3.1707,-3.1712,-3.1716,-3.1759,-3.1731,-3.1734,-3.1735,-3.1831,-3.1832,-3.1834,0,0,0,0,0,0,-3.1558,-3.1566,-3.1634,-3.1604,-3.1613,-3.1632,-3.165,-3.1653,-3.1665,-3.1685,-3.1689,-3.1671,-3.1706,-3.1713,-3.1745,-3.1761,-3.1735,-3.1738,-3.183,-3.1832,-3.1833,-3.1843,0,0,0,0,0,0,-3.1555,-3.1565,-3.1578,-3.1604,-3.1614,-3.1662,-3.1651,-3.1655,-3.167,-3.1669,-3.1694,-3.1698,-3.1706,-3.1741,-3.1748,-3.1764,-3.174,-3.1829,-3.1831,-3.1833,-3.1842,-3.1845,-3.1848,0,0,0,0,0,-3.1552,-3.1578,-3.1579,-3.1587,-3.1631,-3.1663,-3.1668,-3.1679,-3.1671,-3.1684,-3.1698,-3.1697,-3.1757,-3.1744,-3.1752,-3.1769,-3.1828,-3.183,-3.1832,-3.184,-3.1844,-3.1848,0,0,0,0,0,0,-3.1552,-3.1581,-3.1583,-3.1618,-3.1638,-3.1663,-3.168,-3.1682,-3.1704,-3.1703,-3.1713,-3.1719,-3.1752,-3.1763,-3.1748,-3.1804,-3.1792,-3.1796,-3.1795,-3.1799,-3.1802,-3.1799,-3.1742,0,0,0,0,0,-3.1556,-3.158,-3.1604,-3.1633,-3.1643,-3.166,-3.1674,-3.168,-3.1701,-3.171,-3.1725,-3.1745,-3.1769,-3.1784,-3.1807,-3.1843,-3.1849,-3.1859,-3.1862,-3.1864,-3.1868,-3.189,-3.1895,-3.1841,-3.1841,-3.1841,0,0,-3.1564,-3.1584,-3.1598,-3.1633,-3.165,-3.1675,-3.1667,-3.1693,-3.1712,-3.1713,-3.1746,-3.1758,-3.1781,-3.1816,-3.1832,-3.1826,-3.1884,-3.1867,-3.1869,-3.1871,-3.1893,-3.1898,-3.1902,-3.1843,-3.1842,-3.1842,0,0,-3.1593,-3.161,-3.1636,-3.1654,-3.1679,-3.169,-3.1697,-3.1722,-3.1731,-3.1764,-3.1767,-3.1788,-3.1828,-3.1846,-3.1859,-3.1897,-3.1898,-3.1904,-3.192,-3.1942,-3.1946,-3.195,-3.1965,-3.197,-3.1907,-3.1907,-3.1907,0,-3.1601,-3.1639,-3.165,-3.1677,-3.1693,-3.1697,-3.1725,-3.174,-3.1771,-3.1782,-3.1776,-3.1828,-3.1844,-3.1884,-3.1893,-3.1904,-3.1912,-3.1902,-3.1944,-3.1948,-3.1952,-3.1967,-3.1972,-3.1908,-3.1908,-3.1908,-3.1908,0,-3.1647,-3.1674,-3.1692,-3.1725,-3.1743,-3.1769,-3.1785,-3.1802,-3.1807,-3.1819,-3.1853,-3.1872,-3.19,-3.1909,-3.1913,-3.1951,-3.1947,-3.1942,-3.1931,-3.1958,-3.1972,-3.1978,-3.1909,-3.1909,-3.1908,-3.1908,0,0,-3.1677,-3.1716,-3.1723,-3.1739,-3.1768,-3.1789,-3.1816,-3.1845,-3.186,-3.1881,-3.1906,-3.194,-3.1937,-3.1953,-3.1959,-3.1978,-3.2009,-3.1971,-3.1972,-3.1979,-3.2053,-3.2058,-3.2064,-3.2009,-3.201,-3.2011,-3.2052,0,-3.1711,-3.1761,-3.1773,-3.1816,-3.1842,-3.1847,-3.1871,-3.1892,-3.1904,-3.1927,-3.194,-3.1966,-3.1958,-3.1968,-3.1987,-3.2001,-3.2024,-3.1998,-3.2033,-3.2034,-3.2029,-3.2071,-3.2076,-3.2114,-3.2058,-3.2059,-3.2059,0,-3.1756,-3.1781,-3.1828,-3.1856,-3.1867,-3.1889,-3.1917,-3.1939,-3.1963,-3.1971,-3.199,-3.1994,-3.2024,-3.201,-3.2052,-3.2034,-3.2048,-3.2058,-3.206,-3.2064,-3.2049,-3.2079,-3.2126,-3.2133,-3.2068,-3.2067,-3.2066,0,-3.1776,-3.1821,-3.1855,-3.1868,-3.1901,-3.1917,-3.1931,-3.1954,-3.1971,-3.1996,-3.2007,-3.2034,-3.2049,-3.207,-3.2082,-3.2071,-3.2123,-3.211,-3.2132,-3.2131,-3.2143,-3.2143,-3.2195,-3.215,-3.215,-3.215,-3.2149,0,-3.1813,-3.1842,-3.1865,-3.1886,-3.1919,-3.1932,-3.1964,-3.1978,-3.1999,-3.2023,-3.2028,-3.2051,-3.2065,-3.2089,-3.2099,-3.2133,-3.2139,-3.2147,-3.2149,-3.2148,-3.2147,-3.2158,-3.2157,-3.2151,-3.2151,-3.215,-3.215,0,-3.1841,-3.1858,-3.1896,-3.1925,-3.1933,-3.1956,-3.198,-3.2001,-3.2014,-3.2045,-3.2053,-3.2073,-3.2103,-3.2117,-3.2152,-3.2159,-3.2199,-3.2198,-3.2191,-3.2193,-3.2214,-3.2213,-3.2277,-3.2287,-3.2233,-3.2233,-3.2234,0,-3.1865,-3.1888,-3.192,-3.1937,-3.1953,-3.198,-3.1998,-3.2012,-3.203,-3.2061,-3.2078,-3.2108,-3.2134,-3.2181,-3.2198,-3.2226,-3.2228,-3.2248,-3.2232,-3.223,-3.2231,-3.223,-3.2233,-3.2252,-3.2252,-3.2253,-3.2253,0,-3.1906,-3.1914,-3.194,-3.197,-3.1993,-3.2016,-3.204,-3.2054,-3.2071,-3.2092,-3.2123,-3.2143,-3.2181,-3.2211,-3.2241,-3.2255,-3.2258,-3.2258,-3.2265,-3.2264,-3.226,-3.2265,-3.2201,-3.2257,-3.2256,-3.2256,-3.2256,-3.2256,-3.1934,-3.1955,-3.1982,-3.2012,-3.2032,-3.2054,-3.2076,-3.2093,-3.2119,-3.2153,-3.2158,-3.2192,-3.2217,-3.2257,-3.2273,-3.23,-3.2295,-3.2304,-3.2307,-3.231,-3.2312,-3.2255,-3.2305,-3.2305,-3.2305,-3.2304,-3.2304,0,-3.1977,-3.1995,-3.2023,-3.2057,-3.2081,-3.2082,-3.2108,-3.2128,-3.2158,-3.2181,-3.2207,-3.2244,-3.2273,-3.2294,-3.2324,-3.2342,-3.2344,-3.235,-3.2349,-3.2353,-3.2313,-3.2305,-3.2348,-3.2348,-3.2348,-3.2348,-3.2348,-3.2348,-3.2003,-3.204,-3.2051,-3.2098,-3.2115,-3.215,-3.2165,-3.2186,-3.2205,-3.2247,-3.2272,-3.2286,-3.2308,-3.2341,-3.2369,-3.2374,-3.2386,-3.2392,-3.2397,-3.236,-3.2356,-3.2351,-3.2344,-3.2394,-3.2394,-3.2436,-3.2436,-3.2436]}]]